Location: Bégole
(43.1574°N, 0.3291°E)
Time: 01:45:18
(UTC+00:00)

Cosmos 2322 Rocket - Pass Details

Date: 28 January 2023
Orbit: 831 x 851 km, 71.0° (Epoch: 27 March)

Event Time Altitude Azimuth Distance (km) Brightness Sun altitude
Rises 18:01:54 0° 155° (SSE) 3,363 5.2 -10.6°
Reaches altitude 10° 18:05:16 10° 134° (SE) 2,433 4.3 -11.2°
Maximum altitude 18:08:30 16° 98° (E) 2,053 3.6 -11.7°
Enters shadow 18:09:23 15° 87° (E) 2,085 3.6 -11.9°
